This demonstration page uses our WeatherBlox Daily Observations layout. Learn more.

38.88101, -77.10428

Hourly Observations for August 22, 2015

Temp ( °F °C ) Dew Point ( °F °C ) Humidity (%) Winds ( mph kmh ) Pressure ( in mb ) Visibility ( mi km ) Precip ( " mm )
12:52 am 00:52 Partly Cloudy 71 21.7 59 15 66 66 NNW 7 11 30.09 1019 10 16.0934 0 0
1:52 am 01:52 Mostly Clear 70 21.1 59 15 68 68 NNW 6 9 30.09 1019 10 16.0934 0 0
2:52 am 02:52 Clear 68 20 58 14.4 70 70 NNW 7 11 30.1 1019 10 16.0934 0 0
3:52 am 03:52 Clear 68 20 59 15 73 73 NNW 7 11 30.09 1019 10 16.0934 0 0
4:52 am 04:52 Clear 66 18.9 58 14.4 75 75 NNW 8 13 30.1 1019 10 16.0934 0 0
5:52 am 05:52 Mostly Clear 65 18.3 59 15 81 81 NNW 8 13 30.11 1020 10 16.0934 0 0
6:52 am 06:52 Mostly Sunny 65 18.3 59 15 81 81 NNW 8 13 30.12 1020 10 16.0934 0 0
7:52 am 07:52 Partly Cloudy 70 21.1 58 14.4 66 66 N 6 9 30.14 1021 10 16.0934 0 0
8:52 am 08:52 Partly Cloudy 74 23.3 56 13.3 54 54 NNE 8 13 30.14 1021 10 16.0934 0 0
9:52 am 09:52 Partly Cloudy 76 24.4 56 13.3 50 50 NNE 7 11 30.15 1021 10 16.0934 0 0
10:52 am 10:52 Mostly Cloudy 78 25.6 56 13.3 47 47 ENE 7 11 30.15 1021 10 16.0934 0 0
11:52 am 11:52 Partly Cloudy 81 27.2 54 12.2 39 39 ENE 10 17 30.14 1021 10 16.0934 0 0
12:52 pm 12:52 Partly Cloudy 82 27.8 53 11.7 37 37 NE 5 7 30.13 1020 10 16.0934 0 0
1:52 pm 13:52 Partly Cloudy 84 28.9 53 11.7 34 34 NNE 6 9 30.11 1020 10 16.0934 0 0
2:52 pm 14:52 Partly Cloudy 85 29.4 53 11.7 33 33 Calm 30.09 1019 10 16.0934 0 0
3:52 pm 15:52 Partly Cloudy 86 30 52 11.1 31 31 NNW 7 11 30.08 1019 10 16.0934 0 0
4:52 pm 16:52 Partly Cloudy 86 30 51 10.6 30 30 WNW 6 9 30.07 1018 10 16.0934 0 0
5:52 pm 17:52 Partly Cloudy 85 29.4 52 11.1 32 32 NNE 5 7 30.06 1018 10 16.0934 0 0
6:52 pm 18:52 Mostly Sunny 83 28.3 54 12.2 37 37 NNE 8 13 30.06 1018 10 16.0934 0 0
7:52 pm 19:52 Partly Cloudy 78 25.6 57 13.9 48 48 SE 8 13 30.06 1018 10 16.0934 0 0
8:52 pm 20:52 Mostly Clear 75 23.9 57 13.9 54 54 SE 5 7 30.07 1018 10 16.0934 0 0
9:52 pm 21:52 Mostly Clear 75 23.9 57 13.9 54 54 Calm 30.08 1019 10 16.0934 0 0
10:52 pm 22:52 Clear 74 23.3 56 13.3 54 54 NE 6 9 30.08 1019 10 16.0934 0 0
11:52 pm 23:52 Mostly Clear 73 22.8 54 12.2 51 51 NNE 5 7 30.07 1018 10 16.0934 0 0

Powered by AerisWeather